This demonstration page uses our WeatherBlox Daily Observations layout. Learn more.

Left ArrowRight Arrow

38.89511, -77.03637

Hourly Observations for May 8, 2018

Temp ( °F °C ) Dew Point ( °F °C ) Humidity (%) Winds ( mph kmh ) Pressure ( in mb ) Visibility ( mi km ) Precip ( " mm )
12:52 am 00:52 Mostly Cloudy 63 17.2 51 10.6 65 65 SSE 7 11 30.17 1022 10 16 0.00 0.00
1:52 am 01:52 Partly Cloudy 61 16.1 52 11.1 72 72 SSE 6 9 30.17 1022 10 16 0.00 0.00
2:52 am 02:52 Mostly Cloudy 60 15.6 52 11.1 75 75 ESE 5 7 30.17 1022 10 16 0.00 0.00
3:52 am 03:52 Mostly Cloudy 60 15.6 52 11.1 75 75 E 3 6 30.19 1022 10 16 0.00 0.00
4:52 am 04:52 Mostly Clear 59 15 52 11.1 78 78 ENE 6 9 30.19 1022 10 16 0.00 0.00
5:52 am 05:52 Mostly Clear 58 14.4 51 10.6 78 78 NE 7 11 30.20 1023 10 16 0.00 0.00
6:52 am 06:52 Mostly Sunny 58 14.4 51 10.6 78 78 ENE 6 9 30.23 1024 10 16 0.00 0.00
7:52 am 07:52 Mostly Sunny 60 15.6 51 10.6 72 72 NE 9 15 30.24 1024 10 16 0.00 0.00
8:52 am 08:52 Mostly Sunny 65 18.3 51 10.6 61 61 N 5 7 30.24 1024 10 16 0.00 0.00
9:52 am 09:52 Sunny 68 20 51 10.6 55 55 NE 8 13 30.24 1024 10 16 0.00 0.00
10:52 am 10:52 Mostly Sunny 71 21.7 52 11.1 51 51 NE 7 11 30.24 1024 10 16 0.00 0.00
11:52 am 11:52 Mostly Sunny 74 23.3 49 9.4 41 41 E 9 15 30.23 1024 10 16 0.00 0.00
12:52 pm 12:52 Mostly Sunny 75 23.9 46 7.8 36 36 ENE 6 9 30.22 1023 10 16 0.00 0.00
1:52 pm 13:52 Mostly Sunny 77 25 47 8.3 35 35 NE 10 17 30.20 1023 10 16 0.00 0.00
2:52 pm 14:52 Partly Cloudy 77 25 49 9.4 37 37 NE 12 19 30.18 1022 10 16 0.00 0.00
3:52 pm 15:52 Mostly Cloudy 76 24.4 49 9.4 39 39 E 9 15 30.17 1022 10 16 0.00 0.00
4:52 pm 16:52 Partly Cloudy 76 24.4 45 7.2 33 33 SE 3 6 30.16 1021 10 16 0.00 0.00
5:52 pm 17:52 Partly Cloudy 75 23.9 49 9.4 40 40 E 10 17 30.15 1021 10 16 0.00 0.00
6:52 pm 18:52 Mostly Sunny 73 22.8 47 8.3 40 40 E 8 13 30.15 1021 10 16 0.00 0.00
7:52 pm 19:52 Mostly Sunny 71 21.7 48 8.9 44 44 ESE 9 15 30.15 1021 10 16 0.00 0.00
8:52 pm 20:52 Clear 69 20.6 48 8.9 47 47 SE 7 11 30.16 1021 10 16 0.00 0.00
9:52 pm 21:52 Clear 67 19.4 48 8.9 51 51 ESE 9 15 30.17 1022 10 16 0.00 0.00
10:52 pm 22:52 Clear 65 18.3 49 9.4 56 56 SE 9 15 30.18 1022 10 16 0.00 0.00
11:52 pm 23:52 Clear 63 17.2 48 8.9 58 58 VRB 3 6 30.19 1022 10 16 0.00 0.00

Powered by AerisWeather